| time (UTC) | temp F | wind direction | speed knots | gust knots | rain 1hr in | rain 24hr in | rain mn in | humidity % | barometer mb |
| 20260506203334 | 69 | 315 | 0.0 | 0.0 | 0.00 | 0.00 | 0.00 | 55 | 1004.2 |
| 20260506201831 | 69 | 315 | 0.0 | 2.6 | 0.00 | 0.00 | 0.00 | 54 | 1004.1 |
| 20260506200328 | 70 | 315 | 0.0 | 0.0 | 0.00 | 0.00 | 0.00 | 54 | 1004.4 |
| 20260506194825 | 70 | 0 | 0.0 | 0.0 | 0.00 | 0.00 | 0.00 | 52 | 1004.6 |
| 20260506193322 | 71 | 0 | 0.0 | 0.0 | 0.00 | 0.00 | 0.00 | 50 | 1004.7 |
| 20260506191819 | 71 | 0 | 0.0 | 0.0 | 0.00 | 0.00 | 0.00 | 49 | 1004.6 |
| 20260506184813 | 71 | 0 | 0.0 | 0.0 | 0.00 | 0.00 | 0.00 | 47 | 1004.3 |
| 20260506183310 | 71 | 84 | 0.9 | 2.6 | 0.00 | 0.00 | 0.00 | 47 | 1004.1 |
| 20260506181807 | 72 | 62 | 0.9 | 3.5 | 0.00 | 0.00 | 0.00 | 45 | 1003.9 |
| 20260506180304 | 72 | 90 | 0.9 | 2.6 | 0.00 | 0.00 | 0.00 | 44 | 1003.9 |
| 20260506174803 | 73 | 54 | 1.7 | 3.5 | 0.00 | 0.00 | 0.00 | 43 | 1003.8 |
| 20260506173258 | 75 | 82 | 4.3 | 4.3 | 0.00 | 0.00 | 0.00 | 41 | 1004.0 |
| 20260506171755 | 77 | 299 | 0.0 | 2.6 | 0.00 | 0.00 | 0.00 | 40 | 1004.0 |
| 20260506170252 | 76 | 288 | 0.9 | 3.5 | 0.00 | 0.00 | 0.00 | 41 | 1003.9 |
| 20260506163245 | 76 | 315 | 0.0 | 5.2 | 0.00 | 0.00 | 0.00 | 41 | 1004.0 |
| 20260506160034 | 76 | 282 | 0.9 | 7.0 | 0.00 | 0.00 | 0.00 | 40 | 1004.0 |
| 20260506155344 | 75 | 270 | 7.8 | 7.8 | 0.00 | 0.00 | 0.00 | 40 | 1004.1 |
| 20260506154321 | 76 | 4 | 0.9 | 9.6 | 0.00 | 0.00 | 0.00 | 40 | 1004.1 |
| 20260506153818 | 76 | 274 | 9.6 | 9.6 | 0.00 | 0.00 | 0.00 | 40 | 1004.1 |
| 20260506153032 | 76 | 300 | 1.7 | 5.2 | 0.00 | 0.00 | 0.00 | 40 | 1004.1 |
| 20260506151529 | 76 | 79 | 3.5 | 7.0 | 0.00 | 0.00 | 0.00 | 40 | 1004.1 |
| 20260506150028 | 76 | 278 | 0.9 | 6.1 | 0.00 | 0.00 | 0.00 | 40 | 1004.1 |
| 20260506144525 | 75 | 92 | 1.7 | 7.0 | 0.00 | 0.00 | 0.00 | 41 | 1004.1 |
| 20260506143020 | 75 | 97 | 3.5 | 6.1 | 0.00 | 0.00 | 0.00 | 41 | 1004.1 |
| 20260506141517 | 76 | 290 | 0.9 | 7.0 | 0.00 | 0.00 | 0.00 | 41 | 1004.1 |
| 20260506140607 | 76 | 278 | 7.8 | 7.8 | 0.00 | 0.00 | 0.00 | 41 | 1004.3 |
| 20260506135215 | 75 | 314 | 0.0 | 5.2 | 0.00 | 0.00 | 0.00 | 43 | 1004.2 |
| 20260506133712 | 76 | 80 | 3.5 | 6.1 | 0.00 | 0.00 | 0.00 | 42 | 1004.3 |
| 20260506132209 | 78 | 291 | 1.7 | 5.2 | 0.00 | 0.00 | 0.00 | 41 | 1004.3 |
| 20260506131649 | 77 | 267 | 8.7 | 8.7 | 0.00 | 0.00 | 0.00 | 42 | 1004.2 |
| 20260506130951 | 76 | 317 | 1.7 | 6.1 | 0.00 | 0.00 | 0.00 | 44 | 1004.2 |
| 20260506125448 | 74 | 280 | 0.9 | 5.2 | 0.00 | 0.00 | 0.00 | 47 | 1004.3 |
| 20260506123945 | 76 | 265 | 1.7 | 6.1 | 0.00 | 0.00 | 0.00 | 46 | 1004.3 |
| 20260506122442 | 74 | 285 | 1.7 | 7.0 | 0.00 | 0.00 | 0.00 | 48 | 1004.4 |
| 20260506120939 | 74 | 270 | 0.9 | 5.2 | 0.00 | 0.00 | 0.00 | 50 | 1004.4 |
| 20260506120248 | 74 | 272 | 7.8 | 7.8 | 0.00 | 0.00 | 0.00 | 51 | 1004.4 |
| 20260506115745 | 73 | 283 | 0.9 | 7.0 | 0.00 | 0.00 | 0.00 | 54 | 1004.3 |
| 20260506114242 | 72 | 281 | 3.5 | 6.1 | 0.00 | 0.00 | 0.00 | 56 | 1004.5 |
| 20260506112739 | 71 | 270 | 1.7 | 5.2 | 0.00 | 0.00 | 0.00 | 59 | 1004.5 |
| 20260506111236 | 70 | 270 | 1.7 | 4.3 | 0.00 | 0.00 | 0.00 | 61 | 1004.5 |
| 20260506105733 | 70 | 271 | 4.3 | 7.0 | 0.00 | 0.00 | 0.00 | 59 | 1004.6 |
| 20260506104230 | 70 | 96 | 2.6 | 5.2 | 0.00 | 0.00 | 0.00 | 61 | 1004.3 |
| 20260506103726 | 70 | 270 | 9.6 | 9.6 | 0.00 | 0.00 | 0.00 | 61 | 1004.3 |
| 20260506102648 | 69 | 272 | 1.7 | 4.3 | 0.00 | 0.00 | 0.00 | 64 | 1004.4 |
| 20260506101145 | 69 | 313 | 0.9 | 6.1 | 0.00 | 0.00 | 0.00 | 63 | 1004.3 |
| 20260506100424 | 69 | 274 | 7.8 | 8.7 | 0.00 | 0.00 | 0.00 | 63 | 1004.4 |
| 20260506095921 | 69 | 262 | 2.6 | 7.0 | 0.00 | 0.00 | 0.00 | 65 | 1004.4 |
| 20260506094418 | 68 | 268 | 1.7 | 7.8 | 0.00 | 0.00 | 0.00 | 68 | 1004.2 |
| 20260506092915 | 68 | 274 | 2.6 | 5.2 | 0.00 | 0.00 | 0.00 | 69 | 1004.1 |
| 20260506091412 | 67 | 277 | 4.3 | 5.2 | 0.00 | 0.00 | 0.00 | 70 | 1004.1 |
| 20260506085909 | 66 | 270 | 0.9 | 7.0 | 0.00 | 0.00 | 0.00 | 75 | 1004.1 |
| 20260506085123 | 66 | 274 | 7.8 | 7.8 | 0.00 | 0.00 | 0.00 | 74 | 1004.1 |
| 20260506083758 | 65 | 112 | 0.9 | 0.9 | 0.00 | 0.00 | 0.00 | 80 | 1004.0 |